This is the latest recevied weather packets stored in our database for station/object DO7ZT-10. If no packets are shown the sender has not sent any weather packets the latest 10 day(s).
| Time | Temp. | Humidity | Pressure | Rain* | Wind** | Luminosity | Snow |
|---|---|---|---|---|---|---|---|
| 1788004916 | 22.78° C | 43% | 1015.7 hPa | - | - | - | - |
| 1788004016 | 22.78° C | 45% | 1015.8 hPa | - | - | - | - |
| 1788003116 | 22.22° C | 48% | 1015.7 hPa | - | - | - | - |
| 1788002216 | 22.22° C | 44% | 1015.7 hPa | - | - | - | - |
| 1788001316 | 21.67° C | 45% | 1015.8 hPa | - | - | - | - |
| 1788000416 | 21.67° C | 51% | 1015.9 hPa | - | - | - | - |
| 1787999516 | 21.11° C | 50% | 1015.9 hPa | - | - | - | - |
| 1787998616 | 20.56° C | 54% | 1016.1 hPa | - | - | - | - |
| 1787997716 | 20.56° C | 53% | 1016.1 hPa | - | - | - | - |
| 1787996816 | 20° C | 56% | 1016.2 hPa | - | - | - | - |
| 1787995916 | 20° C | 56% | 1016.2 hPa | - | - | - | - |
| 1787995015 | 19.44° C | 60% | 1016.2 hPa | - | - | - | - |
| 1787994115 | 19.44° C | 58% | 1016.1 hPa | - | - | - | - |
| 1787993215 | 19.44° C | 61% | 1016.2 hPa | - | - | - | - |
| 1787992315 | 18.33° C | 66% | 1016.1 hPa | - | - | - | - |
| 1787991415 | 18.33° C | 69% | 1016 hPa | - | - | - | - |
| 1787990515 | 18.33° C | 71% | 1015.9 hPa | - | - | - | - |
| 1787989615 | 17.78° C | 74% | 1015.9 hPa | - | - | - | - |
| 1787988715 | 17.22° C | 75% | 1015.6 hPa | - | - | - | - |
| 1787987815 | 17.22° C | 74% | 1015.6 hPa | - | - | - | - |
| 1787986915 | 17.22° C | 80% | 1015.5 hPa | - | - | - | - |
| 1787986015 | 16.67° C | 79% | 1015.5 hPa | - | - | - | - |
| 1787985115 | 16.67° C | 83% | 1015.3 hPa | - | - | - | - |
| 1787984215 | 16.11° C | 84% | 1015.3 hPa | - | - | - | - |
| 1787983314 | 16.11° C | 88% | 1015.3 hPa | - | - | - | - |
* Rain since midnight (hover to see other rain measurements)
** Current wind speed in m/s (hover to see current wind gust speed)